1530730800.14,9774,19.44,74174.0,4.65,-2.03,-0.03,0,*45
1530730801.35,9775,19.44,74172.5,4.65,-1.99,-0.15,0,*73
1530730802.58,9776,19.44,74172.0,4.63,-1.87,-0.07,0,*4A
1530730803.8,9777,19.44,74174.3,4.63,-1.75,-0.27,0,*74
1530730805.01,9778,19.44,74174.8,4.63,-1.55,-0.37,0,*78
1530730806.25,9779,19.44,74172.8,4.63,-1.39,-0.37,0,*73
1530730807.46,9780,19.44,74172.3,4.63,-1.29,-0.37,0,*74
1530730808.68,9781,19.44,74172.8,4.63,-1.17,-0.41,0,*79
1530730809.92,9782,19.44,74174.8,4.63,-1.05,-0.53,0,*7A
1530730811.1,9783,19.44,74174.8,4.65,-0.93,-0.61,0,*42
1530730812.31,9784,19.44,74170.8,4.63,-0.81,-0.77,0,*47
1530730813.49,9785,19.44,74174.8,4.65,-0.73,-0.77,0,*4D
1530730814.7,9786,19.44,74172.0,4.63,-0.61,-0.93,0,*41
1530730815.93,9787,19.44,74172.0,4.63,-0.49,-1.01,0,*70
1530730817.13,9788,19.44,74172.5,4.65,-0.37,-1.05,0,*74
1530730818.36,9789,19.44,74174.3,4.63,-0.27,-1.17,0,*71
1530730819.56,9790,19.44,74172.8,4.63,-0.15,-1.29,0,*75
1530730820.76,9791,19.44,74172.5,4.65,-0.15,-1.35,0,*7F
1530730821.93,9792,19.44,74172.0,4.65,-0.03,-1.55,0,*4D
1530730823.13,9793,19.44,74172.5,4.63,0.09,-1.63,0,*68
1530730824.35,9794,19.44,74174.3,4.63,0.25,-1.79,0,*5A
1530730825.56,9795,19.44,74172.5,4.65,0.25,-1.91,0,*5B
1530730826.81,9796,19.44,74172.5,4.63,0.33,-1.99,0,*51
1530730828.0,9797,19.44,74172.3,4.65,0.37,-2.15,0,*55
1530730829.16,9798,19.44,74172.0,4.65,0.43,-2.27,0,*58
1530730830.38,9799,19.44,74172.0,4.65,0.55,-2.51,0,*5F
1530730831.61,9800,19.44,74174.3,4.65,0.55,-2.63,0,*51
1530730832.85,9801,19.44,74174.3,4.63,0.67,-2.75,0,*50
1530730834.08,9802,19.44,74172.3,4.65,0.79,-2.75,0,*5A
1530730835.28,9803,19.44,74174.8,4.65,0.79,-2.99,0,*59
1530730836.47,9804,19.44,74174.8,4.65,0.87,-3.11,0,*5E
1530730837.66,9805,19.44,74174.0,4.65,0.95,-3.19,0,*54
1530730838.85,9806,19.44,74174.5,4.65,0.95,-3.31,0,*5D
1530730840.04,9807,19.44,74176.5,4.65,0.97,-3.43,0,*5B
1530730841.29,9808,19.44,74174.5,4.67,1.09,-3.51,0,*63
1530730842.52,9809,19.44,74172.5,4.65,1.09,-3.67,0,*65
1530730843.75,9810,19.44,74174.3,4.63,1.09,-3.91,0,*62
1530730844.96,9811,19.44,74172.0,4.65,1.09,-3.95,0,*61
1530730846.16,9812,19.44,74172.0,4.65,1.09,-4.17,0,*6F
1530730847.4,9813,19.44,74170.8,4.67,1.13,-4.25,0,*66
1530730848.6,9814,19.44,74174.5,4.65,1.17,-4.45,0,*61
1530730849.81,9815,19.44,74174.3,4.65,1.21,-4.53,0,*62
1530730851.04,9816,19.44,74174.3,4.65,1.17,-4.77,0,*62
1530730852.3,9817,19.44,74172.0,4.63,1.17,-4.93,0,*6F
1530730853.51,9818,19.44,74172.5,4.65,1.21,-4.99,0,*69
1530730854.74,9819,19.44,74172.3,4.65,1.21,-5.19,0,*61
1530730855.98,9820,19.44,74176.5,4.65,1.17,-5.31,0,*64
1530730857.19,9821,19.44,74172.3,4.65,1.17,-5.55,0,*67
1530730858.42,9822,19.44,74174.3,4.65,1.21,-5.65,0,*62
1530730859.68,9823,19.44,74170.8,4.63,1.17,-5.77,0,*63
1530730860.92,9824,19.44,74172.8,4.65,1.17,-5.85,0,*6F
1530730862.15,9825,19.44,74172.5,4.63,1.17,-5.97,0,*6B
1530730863.35,9826,19.44,74176.3,4.65,1.21,-6.09,0,*6F
1530730864.56,9827,19.44,74174.0,4.65,1.17,-6.35,0,*64
1530730865.77,9828,19.44,74172.8,4.65,1.17,-6.51,0,*69
1530730866.98,9829,19.44,74172.5,4.65,1.09,-6.51,0,*67
1530730868.18,9830,19.44,74172.8,4.65,1.09,-6.69,0,*64
1530730869.35,9831,19.44,74172.3,4.65,1.05,-6.89,0,*67
1530730870.55,9832,19.44,74176.8,4.65,1.05,-7.01,0,*65
1530730871.78,9833,19.44,74176.3,4.63,0.95,-7.15,0,*5F
1530730873.0,9834,19.44,74176.0,4.65,0.87,-7.27,0,*5C
1530730874.22,9835,19.44,74172.0,4.65,0.95,-7.35,0,*5D
1530730875.41,9836,19.44,74174.3,4.65,0.83,-7.49,0,*52
1530730876.64,9837,19.44,74168.8,4.65,0.79,-7.61,0,*5C
1530730877.85,9838,19.44,74176.3,4.65,0.71,-7.69,0,*53
1530730879.1,9839,19.44,74176.3,4.63,0.71,-7.95,0,*57
1530730880.32,9840,19.44,74174.3,4.65,0.55,-7.99,0,*55
1530730881.54,9841,19.44,74172.8,4.65,0.55,-8.11,0,*5B
1530730882.72,9842,19.44,74172.8,4.65,0.37,-8.41,0,*59
1530730883.93,9843,19.44,74176.0,4.63,0.37,-8.55,0,*5B
1530730885.15,9844,19.44,74172.0,4.63,0.25,-8.75,0,*5D
1530730886.34,9845,19.44,74176.0,4.65,0.25,-8.93,0,*52
1530730887.56,9846,19.44,74172.5,4.63,0.13,-9.01,0,*58
1530730888.78,9847,19.44,74174.3,4.63,0.05,-9.11,0,*6F
1530730889.95,9848,19.44,74172.5,4.65,-0.07,-9.19,0,*41
1530730891.15,9849,19.44,74178.0,4.65,-0.15,-9.45,0,*7A
1530730892.35,9850,19.44,74172.0,4.65,-0.19,-9.57,0,*7D
1530730893.55,9851,19.44,74176.5,4.63,-0.29,-9.71,0,*7D
1530730894.72,9852,19.44,74172.8,4.65,-0.37,-9.75,0,*73
1530730895.93,9853,19.44,74174.3,4.63,-0.41,-9.93,0,*7D
1530730897.14,9854,19.44,74172.0,4.63,-0.61,-10.05,0,*4F
1530730898.36,9855,19.44,74174.5,4.63,-0.65,-10.19,0,*47
1530730899.57,9856,19.44,74178.3,4.63,-0.77,-10.31,0,*4D
1530730900.81,9857,19.44,74172.3,4.63,-1.01,-10.53,0,*78
1530730902.06,9858,19.44,74172.8,4.63,-1.05,-10.57,0,*77
1530730903.3,9859,19.44,74172.5,4.65,-1.13,-10.71,0,*73
1530730904.51,9860,19.44,74172.0,4.63,-1.29,-10.85,0,*7D
1530730905.76,9861,19.44,74174.5,4.63,-1.39,-10.97,0,*7E
1530730906.97,9862,19.44,74176.0,4.63,-1.51,-11.11,0,*7C
1530730908.19,9863,19.44,74174.8,4.61,-1.71,-11.29,0,*76
1530730909.41,9864,19.44,74172.3,4.61,-1.83,-11.41,0,*72
1530730910.63,9865,19.44,74174.5,4.61,-1.83,-11.41,0,*73
1530730911.85,9866,19.44,74174.0,4.57,-2.03,-11.45,0,*7A
1530730913.06,9867,19.44,74174.5,4.61,-2.27,-11.59,0,*75
1530730914.27,9868,19.44,74172.5,4.61,-2.39,-11.67,0,*78
1530730915.52,9869,19.44,74176.3,4.61,-2.47,-11.97,0,*7F
1530730916.75,9870,19.44,74172.8,4.61,-2.67,-11.97,0,*75
1530730917.97,9871,19.44,74174.3,4.57,-2.79,-12.11,0,*73
1530730919.19,9872,19.44,74174.5,4.61,-2.95,-12.15,0,*73
1530730920.38,9873,19.44,74172.3,4.61,-3.07,-12.25,0,*7B
1530730921.56,9874,19.44,74172.3,4.61,-3.23,-12.25,0,*7A
1530730922.76,9875,19.44,74174.0,4.61,-3.35,-12.29,0,*70
1530730923.97,9876,19.44,74174.0,4.57,-3.55,-12.43,0,*7C
1530730925.22,9877,19.44,74178.8,4.61,-3.67,-12.53,0,*78
1530730926.44,9878,19.44,74174.3,4.61,-3.91,-12.57,0,*7A
1530730927.69,9879,19.44,74176.0,4.57,-4.01,-12.71,0,*74
1530730928.91,9880,19.44,74176.8,4.57,-4.13,-12.75,0,*75
1530730930.13,9881,19.44,74174.8,4.57,-4.33,-12.75,0,*76
1530730931.34,9882,19.44,74172.8,4.57,-4.49,-12.75,0,*78
1530730932.57,9883,19.44,74178.3,4.61,-4.69,-12.83,0,*77
1530730933.8,9884,19.44,74172.5,4.57,-4.81,-12.83,0,*73
1530730935.01,9885,19.44,74176.8,4.57,-4.89,-12.89,0,*70
1530730936.22,9886,19.44,74178.3,4.57,-5.11,-12.89,0,*73
1530730937.44,9887,19.44,74174.5,4.57,-5.23,-12.89,0,*73
1530730938.63,9888,19.44,74174.8,4.57,-5.39,-12.97,0,*78
1530730939.82,9889,19.44,74176.3,4.57,-5.51,-12.97,0,*77
1530730941.04,9890,19.44,74174.3,4.57,-5.65,-12.89,0,*77
1530730942.25,9891,19.44,74174.8,4.57,-5.81,-12.89,0,*7C
1530730943.5,9892,19.44,74172.0,4.55,-5.93,-12.89,0,*7E
1530730944.69,9893,19.44,74174.0,4.53,-6.05,-12.89,0,*75
1530730945.95,9894,19.44,74172.8,4.55,-6.23,-12.79,0,*7F
1530730947.17,9895,19.44,74176.0,4.53,-6.39,-12.79,0,*73
1530730948.41,9896,19.44,74174.8,4.55,-6.47,-12.75,0,*73
1530730949.64,9897,19.44,74174.5,4.55,-6.59,-12.65,0,*7C
1530730950.88,9898,19.44,74176.3,4.55,-6.77,-12.65,0,*7F
1530730952.12,9899,19.44,74176.3,4.53,-7.01,-12.65,0,*78
1530730953.36,9900,19.44,74172.0,4.55,-6.97,-12.47,0,*71
1530730954.55,9901,19.44,74176.3,4.53,-7.15,-12.39,0,*74
1530730955.82,9902,19.44,74176.3,4.55,-7.27,-12.35,0,*7C
1530730957.06,9903,19.44,74176.0,4.53,-7.39,-12.35,0,*74
1530730958.28,9904,19.44,74172.3,4.53,-7.43,-12.21,0,*7B
1530730959.5,9905,19.44,74172.8,4.53,-7.57,-12.21,0,*7F
1530730960.74,9906,19.44,74174.0,4.53,-7.69,-11.97,0,*7F
1530730961.98,9907,19.44,74174.0,4.53,-7.73,-11.85,0,*76
1530730963.2,9908,19.44,74178.5,4.53,-7.87,-11.85,0,*72
1530730964.44,9909,19.44,74174.8,4.53,-7.95,-11.55,0,*7D
1530730965.68,9910,19.44,74174.5,4.53,-7.95,-11.55,0,*75
1530730966.92,9911,19.44,74174.0,4.49,-7.99,-11.55,0,*73
1530730968.16,9912,19.44,74176.3,4.51,-7.99,-11.41,0,*7C
1530730969.4,9913,19.44,74172.3,4.51,-8.07,-11.23,0,*71
1530730970.59,9914,19.44,74172.3,4.49,-8.17,-11.15,0,*7B
1530730971.83,9915,19.44,74176.3,4.51,-8.11,-10.93,0,*7A
1530730973.1,9916,19.44,74178.5,4.51,-8.11,-10.79,0,*7D
1530730974.31,9917,19.44,74172.3,4.49,-8.17,-10.79,0,*73
1530730975.56,9918,19.44,74174.8,4.51,-8.21,-10.67,0,*7F
1530730976.77,9919,19.44,74172.8,4.51,-8.21,-10.45,0,*7E
1530730978.01,9920,19.44,74172.8,4.51,-8.11,-10.27,0,*73
1530730979.21,9921,19.44,74178.0,4.49,-8.17,-10.31,0,*7A
1530730980.45,9922,19.44,74176.3,4.51,-8.11,-10.05,0,*71
1530730981.68,9923,19.44,74174.0,4.51,-8.11,-9.89,0,*4C
1530730982.89,9924,19.44,74176.0,4.49,-8.11,-9.89,0,*42
1530730984.15,9925,19.44,74176.3,4.51,-8.07,-9.61,0,*4B
1530730985.38,9926,19.44,74172.8,4.49,-8.03,-9.61,0,*45
1530730986.62,9927,19.44,74176.3,4.49,-7.99,-9.41,0,*4A
1530730987.82,9928,19.44,74174.8,4.51,-7.87,-9.23,0,*47
1530730989.02,9929,19.44,74176.0,4.49,-7.91,-9.19,0,*41
1530730990.25,9930,19.44,74176.3,4.49,-7.91,-9.11,0,*41
1530730991.46,9931,19.44,74172.0,4.49,-7.77,-8.97,0,*47
1530730992.69,9932,19.44,74172.0,4.49,-7.77,-8.81,0,*43
1530730993.89,9933,19.44,74174.5,4.49,-7.77,-8.67,0,*4A
1530730995.09,9934,19.44,74174.0,4.49,-7.65,-8.55,0,*4F
1530730996.3,9935,19.44,74174.8,4.49,-7.65,-8.41,0,*4B
1530730997.48,9936,19.44,74172.5,4.49,-7.53,-8.25,0,*4F
1530730998.69,9937,19.44,74176.0,4.49,-7.53,-8.11,0,*49
1530730999.93,9938,19.44,74174.5,4.49,-7.43,-8.03,0,*44
1530731001.16,9939,19.44,74176.3,4.49,-7.35,-7.91,0,*40
1530731002.39,9940,19.44,74176.3,4.49,-7.31,-7.73,0,*46
1530731003.57,9941,19.44,74174.5,4.49,-7.23,-7.53,0,*46
1530731004.76,9942,19.44,74176.8,4.49,-7.23,-7.49,0,*4E
1530731005.98,9943,19.44,74176.8,4.49,-7.19,-7.35,0,*4D
1530731007.21,9944,19.44,74172.8,4.49,-6.97,-7.35,0,*4D
1530731008.45,9945,19.44,74174.3,4.47,-6.93,-7.23,0,*41
1530731009.67,9946,19.44,74170.8,4.47,-6.81,-7.19,0,*48
1530731010.88,9947,19.44,74176.0,4.47,-6.73,-7.11,0,*4C
1530731012.09,9948,19.44,74172.3,4.47,-6.73,-7.11,0,*43
1530731013.32,9949,19.44,74176.0,4.47,-6.69,-6.97,0,*46
1530731014.53,9950,19.44,74174.0,4.47,-6.55,-6.85,0,*42
1530731015.74,9951,19.44,74172.0,4.47,-6.51,-6.73,0,*4E
1530731016.95,9952,19.44,74176.8,4.47,-6.31,-6.73,0,*4B
1530731018.18,9953,19.44,74174.0,4.47,-6.27,-6.69,0,*46
1530731019.41,9954,19.44,74176.0,4.47,-6.19,-6.69,0,*4C
1530731020.59,9955,19.44,74176.8,4.45,-6.09,-6.69,0,*4E
1530731021.82,9956,19.44,74176.5,4.47,-6.05,-6.63,0,*49
1530731023.03,9957,19.44,74174.5,4.45,-5.89,-6.55,0,*48
1530731024.27,9958,19.44,74176.0,4.47,-5.89,-6.51,0,*41
1530731025.48,9959,19.44,74174.8,4.45,-5.85,-6.47,0,*49
1530731026.72,9960,19.44,74174.5,4.47,-5.77,-6.43,0,*48
1530731027.95,9961,19.44,74174.3,4.47,-5.73,-6.39,0,*40
1530731029.16,9962,19.44,74176.3,4.45,-5.65,-6.43,0,*4B
1530731030.37,9963,19.44,74174.3,4.45,-5.65,-6.43,0,*4A
1530731031.55,9964,19.44,74178.0,4.45,-5.51,-6.43,0,*4A
1530731032.74,9965,19.44,74174.5,4.45,-5.39,-6.31,0,*40
1530731033.93,9966,19.44,74178.5,4.45,-5.39,-6.31,0,*43
1530731035.14,9967,19.44,74178.3,4.45,-5.31,-6.35,0,*4E
1530731036.35,9968,19.44,74178.0,4.45,-5.27,-6.31,0,*42
1530731037.61,9969,19.44,74176.5,4.47,-5.11,-6.27,0,*43
1530731038.82,9970,19.44,74176.5,4.45,-5.15,-6.31,0,*4A
1530731040.06,9971,19.44,74178.5,4.47,-5.03,-6.31,0,*4E
1530731041.29,9972,19.44,74172.5,4.47,-4.99,-6.27,0,*48
1530731042.51,9973,19.44,74172.8,4.47,-4.99,-6.27,0,*49
1530731043.72,9974,19.44,74174.0,4.47,-4.99,-6.31,0,*49
1530731044.97,9975,19.44,74176.8,4.47,-4.93,-6.27,0,*45
1530731046.22,9976,19.44,74178.5,4.47,-4.85,-6.19,0,*4C
1530731047.45,9977,19.44,74176.0,4.47,-4.73,-6.13,0,*4E
1530731048.68,9978,19.44,74178.0,4.45,-4.77,-6.19,0,*4D
1530731049.9,9979,19.44,74176.0,4.47,-4.69,-6.13,0,*4B
1530731051.13,9980,19.44,74176.5,4.45,-4.73,-6.19,0,*4E
1530731052.35,9981,19.44,74174.0,4.45,-4.73,-6.23,0,*46
1530731053.53,9982,19.44,74176.0,4.45,-4.61,-6.13,0,*45
1530731054.74,9983,19.44,74172.0,4.45,-4.61,-6.19,0,*4E
1530731055.92,9984,19.44,74172.3,4.45,-4.53,-6.09,0,*49
1530731057.1,9985,19.44,74172.0,4.45,-4.61,-6.09,0,*49
1530731058.33,9986,19.44,74174.0,4.47,-4.49,-6.19,0,*43
1530731059.53,9987,19.44,74176.0,4.45,-4.49,-6.19,0,*40
1530731060.74,9988,19.44,74174.3,4.45,-4.53,-6.19,0,*44
1530731061.94,9989,19.44,74178.5,4.45,-4.49,-6.23,0,*47
1530731063.14,9990,19.44,74178.0,4.45,-4.49,-6.23,0,*4F
1530731064.37,9991,19.44,74176.5,4.47,-4.37,-6.27,0,*41
1530731065.58,9992,19.44,74176.5,4.45,-4.33,-6.27,0,*44
1530731066.78,9993,19.44,74176.3,4.45,-4.29,-6.23,0,*4A
1530731067.97,9994,19.44,74174.5,4.45,-4.29,-6.31,0,*4E
1530731069.16,9995,19.44,74178.5,4.45,-4.25,-6.31,0,*43
1530731070.35,9996,19.44,74176.3,4.45,-4.25,-6.35,0,*44
1530731071.53,9997,19.44,74174.8,4.45,-4.17,-6.35,0,*44
1530731072.76,9998,19.44,74176.8,4.47,-4.09,-6.27,0,*45
1530731074.0,9999,19.44,74176.3,4.45,-4.01,-6.23,0,*4A
1530731075.22,10000,19.44,74174.0,4.45,-3.83,-6.19,0,*7F
1530731076.46,10001,19.44,74174.5,4.43,-3.87,-6.19,0,*7C
1530731077.71,10002,19.44,74176.0,4.43,-3.87,-6.19,0,*7F
1530731078.97,10003,19.44,74178.0,4.43,-3.63,-6.19,0,*74
1530731080.21,10004,19.44,74178.3,4.43,-3.71,-6.09,0,*71
1530731081.42,10005,19.44,74174.0,4.45,-3.63,-6.09,0,*75
1530731082.63,10006,19.44,74178.0,4.45,-3.59,-6.05,0,*73
1530731083.87,10007,19.44,74176.3,4.43,-3.59,-6.05,0,*74
1530731085.1,10008,19.44,74178.5,4.43,-3.47,-6.05,0,*74
1530731086.34,10009,19.44,74172.8,4.43,-3.47,-5.97,0,*7D
1530731087.58,10010,19.44,74174.5,4.43,-3.47,-6.01,0,*79
1530731088.79,10011,19.44,74174.8,4.43,-3.35,-5.97,0,*71
1530731090.0,10012,19.44,74176.5,4.43,-3.35,-5.97,0,*72
1530731091.24,10013,19.44,74176.8,4.43,-3.31,-5.93,0,*73
1530731092.47,10014,19.44,74174.5,4.43,-3.23,-5.93,0,*77
1530731093.71,10015,19.44,74174.5,4.43,-3.19,-5.93,0,*7F
1530731094.95,10016,19.44,74174.0,4.43,-3.11,-5.93,0,*74
1530731096.19,10017,19.44,74174.5,4.43,-3.07,-5.93,0,*72
1530731097.42,10018,19.44,74174.8,4.43,-2.99,-5.93,0,*7B
1530731098.67,10019,19.44,74174.3,4.43,-2.95,-5.93,0,*76
1530731099.9,10020,19.44,74178.5,4.43,-2.87,-5.93,0,*7F
1530731101.11,10021,19.44,74172.3,4.43,-2.87,-5.97,0,*7A
1530731102.34,10022,19.44,74178.5,4.43,-2.75,-6.05,0,*7C
1530731103.53,10023,19.44,74174.0,4.41,-2.79,-6.01,0,*77
1530731104.76,10024,19.44,74174.5,4.43,-2.75,-6.09,0,*76
1530731106.0,10025,19.38,74170.8,4.43,-2.71,-6.09,0,*73
1530731107.23,10026,19.44,74176.0,4.41,-2.75,-6.27,0,*7A
1530731108.48,10027,19.44,74178.3,4.43,-2.63,-6.31,0,*79
1530731109.72,10028,19.44,74178.0,4.43,-2.63,-6.35,0,*72
1530731110.96,10029,19.44,74176.3,4.43,-2.63,-6.43,0,*72
1530731112.2,10030,19.44,74178.5,4.43,-2.55,-6.47,0,*7B
1530731113.44,10031,19.44,74174.8,4.43,-2.47,-6.59,0,*76
1530731114.64,10032,19.44,74172.3,4.41,-2.59,-6.73,0,*70
1530731115.85,10033,19.44,74174.8,4.43,-2.43,-6.69,0,*73
1530731117.06,10034,19.44,74172.0,4.41,-2.47,-6.77,0,*7D
1530731118.28,10035,19.44,74176.0,4.41,-2.51,-6.89,0,*7A
1530731119.53,10036,19.44,74174.0,4.43,-2.59,-6.97,0,*7C
1530731120.77,10037,19.44,74176.5,4.41,-2.59,-7.01,0,*71
1530731122.03,10038,19.44,74176.5,4.43,-2.55,-7.01,0,*70
1530731123.24,10039,19.44,74172.8,4.41,-2.47,-7.15,0,*75
1530731124.45,10040,19.44,74172.5,4.43,-2.43,-7.23,0,*78
1530731125.7,10041,19.44,74174.8,4.41,-2.47,-7.31,0,*7C
1530731126.96,10042,19.38,74172.3,4.43,-2.47,-7.27,0,*7A
1530731128.22,10043,19.44,74172.0,4.43,-2.47,-7.39,0,*74
1530731129.43,10044,19.44,74172.8,4.41,-2.51,-7.53,0,*7A
1530731130.67,10045,19.44,74178.0,4.43,-2.47,-7.53,0,*7E
1530731131.91,10046,19.44,74172.5,4.41,-2.47,-7.61,0,*7E
1530731133.17,10047,19.44,74178.8,4.43,-2.47,-7.69,0,*75
1530731134.42,10048,19.44,74174.5,4.43,-2.47,-7.83,0,*7E
1530731135.65,10049,19.44,74174.5,4.41,-2.51,-7.95,0,*7D
1530731136.89,10050,19.44,74172.8,4.41,-2.59,-8.11,0,*7E
1530731138.12,10051,19.44,74174.8,4.41,-2.59,-8.11,0,*7F
1530731139.33,10052,19.38,74172.0,4.41,-2.59,-8.25,0,*7B
1530731140.54,10053,19.44,74178.0,4.41,-2.63,-8.25,0,*73
1530731141.74,10054,19.44,74176.5,4.41,-2.59,-8.55,0,*7A
1530731142.94,10055,19.44,74176.3,4.41,-2.59,-8.67,0,*7A
1530731144.17,10056,19.44,74176.3,4.41,-2.63,-8.81,0,*78
1530731145.39,10057,19.44,74176.0,4.41,-2.63,-9.01,0,*70
1530731146.61,10058,19.44,74176.5,4.41,-2.63,-9.19,0,*76
1530731147.82,10059,19.44,74176.5,4.41,-2.63,-9.19,0,*77
1530731149.06,10060,19.44,74178.5,4.41,-2.63,-9.45,0,*74
1530731150.3,10061,19.44,74174.5,4.41,-2.67,-9.49,0,*7D
1530731151.54,10062,19.44,74178.0,4.41,-2.75,-9.61,0,*77
1530731152.77,10063,19.44,74174.5,4.41,-2.75,-9.83,0,*7A
1530731153.99,10064,19.44,74172.3,4.41,-2.75,-9.89,0,*77
1530731155.21,10065,19.44,74174.5,4.41,-2.75,-10.01,0,*4E
1530731156.44,10066,19.44,74174.5,4.41,-2.75,-10.27,0,*49
1530731157.65,10067,19.44,74176.3,4.39,-2.91,-10.45,0,*49
1530731158.89,10068,19.44,74174.0,4.39,-3.03,-10.71,0,*4B
1530731160.14,10069,19.44,74174.0,4.39,-3.15,-10.75,0,*49
1530731161.36,10070,19.44,74174.8,4.39,-3.15,-10.97,0,*4D
1530731162.58,10071,19.44,74176.3,4.35,-3.27,-11.11,0,*4E
1530731163.83,10072,19.44,74174.3,4.39,-3.39,-11.33,0,*4E
1530731165.07,10073,19.38,74172.0,4.39,-3.43,-11.45,0,*43
1530731166.34,10074,19.44,74176.0,4.39,-3.47,-11.67,0,*40
1530731167.6,10075,19.44,74174.8,4.35,-3.59,-11.81,0,*4A
1530731168.85,10076,19.44,74176.3,4.39,-3.71,-12.03,0,*46
1530731170.07,10077,19.44,74176.8,4.39,-3.79,-12.25,0,*4B
1530731171.29,10078,19.44,74176.0,4.35,-4.05,-12.29,0,*48
1530731172.54,10079,19.44,74176.3,4.35,-4.21,-12.53,0,*42
1530731173.79,10080,19.44,74172.3,4.39,-4.25,-12.65,0,*49
1530731175.02,10081,19.44,74172.8,4.35,-4.37,-12.83,0,*4F
1530731176.23,10082,19.44,74172.3,4.35,-4.45,-12.89,0,*43
1530731177.49,10083,19.44,74172.8,4.35,-4.69,-13.01,0,*4D
1530731178.73,10084,19.44,74172.5,4.35,-4.81,-13.23,0,*4C
1530731179.98,10085,19.44,74172.8,4.35,-4.93,-13.37,0,*4B
1530731181.23,10086,19.44,74174.0,4.35,-5.07,-13.55,0,*40
1530731182.46,10087,19.44,74174.8,4.39,-5.11,-13.65,0,*49
1530731183.72,10088,19.44,74174.5,4.35,-5.27,-13.79,0,*42
1530731184.94,10089,19.44,74174.5,4.33,-5.51,-13.87,0,*45
1530731186.19,10090,19.44,74174.0,4.33,-5.69,-14.01,0,*4F
1530731187.41,10091,19.44,74174.3,4.33,-5.81,-14.15,0,*4D
1530731188.64,10092,19.44,74172.3,4.33,-5.93,-14.29,0,*42
1530731189.83,10093,19.44,74174.3,4.33,-6.05,-14.29,0,*4F
1530731191.08,10094,19.44,74172.8,4.31,-6.19,-14.33,0,*4C
1530731192.3,10095,19.44,74174.0,4.33,-6.31,-14.43,0,*42
1530731193.52,10096,19.44,74172.3,4.33,-6.43,-14.43,0,*44
1530731194.74,10097,19.44,74174.5,4.31,-6.55,-14.33,0,*47
1530731195.95,10098,19.44,74172.8,4.33,-6.69,-14.43,0,*42
1530731197.2,10099,19.44,74172.0,4.31,-6.81,-14.55,0,*40
1530731198.45,10100,19.44,74176.3,4.33,-6.97,-14.43,0,*43
1530731199.65,10101,19.44,74174.3,4.33,-7.11,-14.33,0,*4A
1530731200.87,10102,19.44,74174.8,4.35,-7.11,-14.29,0,*44
1530731202.11,10103,19.44,74174.3,4.33,-7.35,-14.43,0,*49
1530731203.33,10104,19.44,74172.0,4.31,-7.49,-14.33,0,*40
1530731204.55,10105,19.44,74174.3,4.31,-7.53,-14.29,0,*41
1530731205.77,10106,19.44,74174.0,4.33,-7.69,-14.29,0,*49
1530731207.02,10107,19.44,74174.0,4.31,-7.91,-14.15,0,*42
1530731208.26,10108,19.44,74172.8,4.31,-8.03,-14.15,0,*49
1530731209.51,10109,19.44,74172.5,4.31,-8.17,-14.05,0,*4C
1530731210.73,10110,19.44,74172.8,4.31,-8.29,-13.93,0,*41
1530731211.94,10111,19.44,74174.0,4.31,-8.33,-13.73,0,*45
1530731213.16,10112,19.44,74174.0,4.29,-8.55,-13.87,0,*44
1530731214.36,10113,19.44,74172.3,4.29,-8.63,-13.73,0,*4B
1530731215.6,10114,19.44,74172.3,4.29,-8.81,-13.61,0,*43
1530731216.83,10115,19.44,74172.0,4.31,-8.89,-13.43,0,*43
1530731218.08,10116,19.38,74168.3,4.31,-8.89,-13.33,0,*47
1530731219.33,10117,19.44,74172.3,4.31,-9.01,-13.29,0,*4C
1530731220.53,10118,19.44,74174.5,4.29,-9.05,-13.07,0,*42
1530731221.74,10119,19.38,74168.0,4.29,-9.05,-12.89,0,*44
1530731222.98,10120,19.44,74172.8,4.27,-9.37,-12.83,0,*4B
1530731224.23,10121,19.44,74172.3,4.29,-9.41,-12.65,0,*4D
1530731225.48,10122,19.44,74172.8,4.29,-9.45,-12.53,0,*4F
1530731226.69,10123,19.44,74174.5,4.29,-9.57,-12.39,0,*41
1530731227.9,10124,19.44,74174.0,4.29,-9.57,-12.25,0,*4B
1530731229.13,10125,19.44,74174.0,4.29,-9.71,-12.15,0,*4D
1530731230.35,10126,19.44,74172.8,4.29,-9.71,-11.81,0,*40
1530731231.57,10127,19.44,74174.8,4.29,-9.75,-11.77,0,*4C
1530731232.79,10128,19.44,74172.3,4.29,-9.75,-11.55,0,*43
1530731234.03,10129,19.44,74172.8,4.29,-9.83,-11.37,0,*4F
1530731235.23,10130,19.44,74172.3,4.29,-9.75,-11.23,0,*4B
1530731236.41,10131,19.44,74174.5,4.27,-9.89,-11.15,0,*42
1530731237.6,10132,19.44,74170.8,4.27,-9.93,-10.97,0,*41
1530731238.81,10133,19.44,74172.8,4.27,-9.93,-10.75,0,*4C
1530731240.03,10134,19.44,74174.8,4.29,-9.97,-10.67,0,*42
1530731241.22,10135,19.44,74174.5,4.27,-9.93,-10.57,0,*4A
1530731242.41,10136,19.44,74174.8,4.27,-9.93,-10.35,0,*4D
1530731243.61,10137,19.44,74172.0,4.29,-9.93,-10.19,0,*4C
1530731244.8,10138,19.44,74172.8,4.29,-9.89,-10.01,0,*41
1530731245.98,10139,19.44,74170.0,4.27,-9.89,-9.89,0,*76
1530731247.16,10140,19.44,74174.0,4.27,-9.93,-9.79,0,*7C
1530731248.36,10141,19.44,74168.8,4.27,-9.93,-9.61,0,*74
1530731249.57,10142,19.44,74174.5,4.29,-9.89,-9.45,0,*74
1530731250.75,10143,19.44,74170.8,4.27,-9.79,-9.31,0,*77
1530731251.92,10144,19.38,74170.5,4.27,-9.89,-9.19,0,*75
1530731253.1,10145,19.44,74172.3,4.27,-9.75,-8.93,0,*74
1530731254.28,10146,19.38,74168.8,4.27,-9.71,-8.75,0,*7B
1530731255.46,10147,19.38,74170.5,4.27,-9.67,-8.55,0,*7F
1530731256.69,10148,19.44,74172.0,4.27,-9.53,-8.51,0,*73
1530731257.91,10149,19.44,74172.8,4.25,-9.49,-8.29,0,*74
1530731259.18,10150,19.44,74172.5,4.25,-9.37,-8.11,0,*7E
1530731260.39,10151,19.44,74174.3,4.25,-9.31,-7.87,0,*79
1530731261.63,10152,19.44,74174.3,4.25,-9.23,-7.73,0,*72
1530731262.88,10153,19.38,74168.3,4.23,-9.15,-7.73,0,*70
1530731264.09,10154,19.44,74172.0,4.27,-9.05,-7.43,0,*71
1530731265.31,10155,19.38,74168.8,4.25,-8.93,-7.23,0,*7A
1530731266.55,10156,19.44,74172.3,4.27,-8.81,-6.97,0,*76
1530731267.75,10157,19.44,74172.0,4.27,-8.67,-6.97,0,*7F
1530731268.94,10158,19.44,74176.3,4.27,-8.55,-6.77,0,*7F
1530731270.15,10159,19.44,74170.3,4.27,-8.41,-6.63,0,*7E
1530731271.36,10160,19.44,74170.8,4.25,-8.29,-6.51,0,*79
1530731272.54,10161,19.38,74172.0,4.23,-8.33,-6.43,0,*76
1530731273.78,10162,19.38,74168.3,4.25,-8.11,-6.13,0,*76
1530731275.01,10163,19.44,74172.0,4.25,-7.99,-5.97,0,*77
1530731276.27,10164,19.44,74174.3,4.25,-7.77,-5.85,0,*73
1530731277.53,10165,19.44,74172.3,4.25,-7.69,-5.77,0,*70
1530731278.76,10166,19.44,74174.0,4.25,-7.43,-5.47,0,*78
1530731279.99,10167,19.38,74172.3,4.25,-7.31,-5.39,0,*75
1530731281.26,10168,19.44,74170.8,4.25,-7.05,-5.27,0,*72
1530731282.5,10169,19.44,74172.8,4.23,-6.97,-5.15,0,*7E
1530731283.69,10170,19.44,74174.5,4.23,-6.77,-4.99,0,*7D
1530731284.93,10171,19.38,74170.5,4.25,-6.55,-4.81,0,*73
1530731286.14,10172,19.44,74172.8,4.23,-6.43,-4.77,0,*78
1530731287.35,10173,19.44,74172.8,4.25,-6.05,-4.61,0,*7A
1530731288.56,10174,19.44,74172.3,4.25,-5.97,-4.61,0,*75
1530731289.81,10175,19.44,74172.0,4.25,-5.85,-4.57,0,*72
1530731291.02,10176,19.38,74172.5,4.23,-5.65,-4.53,0,*7D
1530731292.23,10177,19.38,74170.5,4.25,-5.39,-4.45,0,*74
1530731293.46,10178,19.44,74172.3,4.25,-5.23,-4.45,0,*70
1530731294.68,10179,19.44,74174.5,4.23,-5.15,-4.49,0,*7E
1530731295.89,10180,19.44,74172.3,4.23,-4.89,-4.49,0,*7C
1530731297.1,10181,19.44,74174.8,4.23,-4.73,-4.53,0,*73
1530731298.31,10182,19.44,74174.0,4.25,-4.49,-4.57,0,*7B
1530731299.51,10183,19.44,74174.3,4.25,-4.37,-4.49,0,*7C
1530731300.7,10184,19.44,74174.5,4.23,-4.17,-4.57,0,*70
1530731301.89,10185,19.44,74172.0,4.23,-4.05,-4.57,0,*72
1530731303.11,10186,19.44,74172.3,4.25,-3.91,-4.61,0,*78
1530731304.35,10187,19.38,74168.3,4.23,-3.71,-4.73,0,*72
1530731305.61,10188,19.44,74172.3,4.25,-3.59,-4.77,0,*75
1530731306.88,10189,19.44,74174.8,4.25,-3.51,-4.85,0,*71
1530731308.11,10190,19.44,74174.0,4.25,-3.31,-4.93,0,*78
1530731309.32,10191,19.44,74174.0,4.25,-3.19,-4.99,0,*79
1530731310.54,10192,19.44,74174.3,4.23,-3.23,-5.23,0,*75
1530731311.75,10193,19.44,74172.3,4.23,-2.99,-5.31,0,*77
1530731312.97,10194,19.44,74174.8,4.25,-2.95,-5.35,0,*7E
1530731314.18,10195,19.44,74172.3,4.25,-2.79,-5.39,0,*71
1530731315.37,10196,19.44,74172.0,4.23,-2.79,-5.51,0,*7A
1530731316.61,10197,19.44,74172.0,4.25,-2.63,-5.51,0,*76